This demonstration page uses our WeatherBlox Daily Observations layout. Learn more.

39.92423, -83.80882

Hourly Observations for June 1, 2016

Temp ( °F °C ) Dew Point ( °F °C ) Humidity (%) Winds ( mph kmh ) Pressure ( in mb ) Visibility ( mi km ) Precip ( " mm )
12:56 am 00:56 Clear 68 20 60 15.5 75 75 Calm 30 1016 10 16.0934 0 0
1:56 am 01:56 Clear 67 19.4 60 15.5 78 78 E 5 7 29.99 1016 10 16.0934 0 0
2:56 am 02:56 Clear 65 18.3 59 15 81 81 E 5 7 29.98 1015 10 16.0934 0 0
3:56 am 03:56 Clear 64 17.7 59 15 84 84 E 7 11 29.98 1015 10 16.0934 0 0
4:56 am 04:56 Clear 64 17.7 59 15 84 84 E 6 9 29.98 1015 10 16.0934 0 0
5:56 am 05:56 Clear 63 17.2 59 15 87 87 E 6 9 29.99 1016 10 16.0934 0 0
6:56 am 06:56 Sunny 64 17.7 60 15.5 87 87 E 5 7 30 1016 10 16.0934 0 0
7:56 am 07:56 Sunny 69 20.5 62 16.6 78 78 E 7 11 30 1016 10 16.0934 0 0
8:56 am 08:56 Sunny 73 22.7 63 17.2 71 71 ESE 6 9 30.01 1016 10 16.0934 0 0
9:56 am 09:56 Sunny 78 25.5 64 17.7 62 62 ESE 6 9 30 1016 10 16.0934 0 0
10:56 am 10:56 Sunny 83 28.3 61 16.1 48 48 SSE 7 11 30 1016 10 16.0934 0 0
11:56 am 11:56 Sunny 85 29.4 62 16.6 46 46 VRB 7 11 29.99 1016 10 16.0934 0 0
12:56 pm 12:56 Sunny 86 30 60 15.5 41 41 SW 7 11 29.98 1015 10 16.0934 0 0
1:56 pm 13:56 Mostly Sunny 87 30.5 60 15.5 40 40 SW 10 17 29.96 1015 10 16.0934 0 0
2:56 pm 14:56 Mostly Sunny 87 30.5 59 15 39 39 S 6 9 29.96 1014 10 16.0934 0 0
3:56 pm 15:56 Partly Cloudy 87 30.5 59 15 39 39 SSW 8 13 29.95 1014 10 16.0934 0 0
4:56 pm 16:56 Sunny 87 30.5 59 15 39 39 S 9 15 29.93 1013 10 16.0934 0 0
5:56 pm 17:56 Mostly Cloudy 85 29.4 59 15 42 42 SW 5 7 29.92 1013 10 16.0934 0 0
6:56 pm 18:56 Sunny 85 29.4 62 16.6 46 46 SW 8 13 29.92 1013 10 16.0934 0 0
7:56 pm 19:56 Cloudy 83 28.3 60 15.5 46 46 NNE 7 11 29.95 1014 10 16.0934 0 0
8:03 pm 20:03 Sunny 77 25 63 17 61 61 WNW 10 17 29.91 1013 10 16.0934 0 0
8:56 pm 20:56 Sunny 74 23.3 63 17.2 69 69 NW 8 13 29.95 1014 10 16.0934 0 0
9:56 pm 21:56 Clear 72 22.2 66 18.8 81 81 Calm 29.97 1015 10 16.0934 0 0.0254
10:56 pm 22:56 Clear 71 21.6 66 18.8 84 84 Calm 29.97 1015 10 16.0934 0 0
11:56 pm 23:56 Mostly Clear 69 20.5 67 19.4 93 93 SSW 3 6 29.97 1015 10 16.0934 0 0

Powered by AerisWeather